Regional Weather Roundup
Issued by NWS Cleveland, OH

Home | Current Version | Previous Version | Text Only | Print | Product List | Glossary Off
Versions: 1 2 3 4 5 6 7 8 9 10 11 12 13 14 15 16 17 18 19 20 21 22 23 24 25 26 27 28 29 30 31 32 33 34 35 36 37 38 39 40 41 42 43 44 45 46 47 48 49 50

000
ASUS41 KCLE 211300
RWRCLE
OHIO REGIONAL WEATHER ROUNDUP
NATIONAL WEATHER SERVICE WILMINGTON, OH
900 AM EDT TUE OCT 21 2014

NOTE: "FAIR" INDICATES FEW OR NO CLOUDS BELOW 12,000 FEET WITH NO
SIGNIFICANT WEATHER AND/OR OBSTRUCTIONS TO VISIBILITY.

OHZ001>008-015>018-024>027-034-035-043-044-211400-
   NORTHWEST OHIO

CITY           SKY/WX    TMP DP  RH WIND       PRES   REMARKS
DEFIANCE       CLOUDY    48  44  86 NW9       30.01R
FINDLAY        CLOUDY    48  45  89 NW9       29.97R
TOLEDO EXPRESS CLOUDY    48  44  86 NW6       29.98R
TOLEDO METCALF CLOUDY    49  43  80 NW13      29.98R
LIMA           CLOUDY    48  44  86 NW9       29.98R
$$

OHZ009>014-019>023-028>033-038-089-211400-
   NORTHEAST OHIO

CITY           SKY/WX    TMP DP  RH WIND       PRES   REMARKS
CLE-HOPKINS    LGT RAIN  51  46  83 NW12      29.93R
CLE-LAKEFRONT  CLOUDY    52  47  83 NW13      29.90R
CUY CO. ARPT   DRIZZLE   52  50  93 N12       29.91R
LORAIN-ELYRIA  CLOUDY    49  47  93 N6        29.93R
ASHTABULA      CLOUDY    50  48  93 NW5       29.88R
AKRON-CANTON   LGT RAIN  50  47  89 N9        29.89R FOG
WOOSTER        CLOUDY    51  47  86 N10       29.91R
MANSFIELD      CLOUDY    47  46  97 NW10      29.93R
YOUNGSTOWN     LGT RAIN  50  48  93 NW8       29.87R FOG
$$

OHZ042-051>053-060>062-070>072-077>081-211400-
  SOUTHWEST OHIO

CITY           SKY/WX    TMP DP  RH WIND       PRES   REMARKS
CINC-COVINGTON PTSUNNY   49  45  86 NW7       30.01R
CINC-LUNKEN    CLOUDY    50  45  83 NW6       30.02R
HAMILTON       CLOUDY    50  45  83 NW9       30.02R
DAYTON         NOT AVBL
WRIGHT-PAT AFB NOT AVBL
DAYTON GENERAL CLOUDY    49  43  80 NW10      29.98R
WILMINGTON     CLOUDY    48  43  82 NW12      29.97R
$$

OHZ036-037-039>041-045>050-054>059-063>069-073>076-082>088-211400-
  CENTRAL AND SOUTHEAST OHIO

CITY           SKY/WX    TMP DP  RH WIND       PRES   REMARKS
COLUMBUS       CLOUDY    49  47  93 NW13      29.94R FOG
OSU AIRPORT    CLOUDY    48  45  89 NW12      29.95R
BOLTON FIELD   CLOUDY    48  46  93 NW8       29.96R
RICKENBACK AFB NOT AVBL
NEWARK         LGT RAIN  50  47  89 NW10      29.91R
MARION         CLOUDY    48  44  86 NW12      29.95R
LANCASTER      LGT RAIN  50  47  89 NW12      29.93R FOG
ZANESVILLE     CLOUDY    50  48  93 W3        29.90R FOG
NEW PHILLY     CLOUDY    53  49  86 NW5       29.90R FOG
$$



USA.gov is the U.S. government's official web portal to all federal, state and local government web resources and services.